GJS4176 KEWR-KRIC

Flight info

Callsign GJS4176
Flight time 0h 56m
Altitude 20000
Route ELVAE NECCK WHITE Q409 TRPOD T303 JAMIE
Aircraft CRJ7/M-SDFGIRWY/S

Departure

Time 2026-04-24 22:02
Airport Newark Liberty International Airport (KEWR)

Arrival

Time 2026-04-24 22:58
Airport Richmond International Airport (KRIC)
Time Latitude Longitude Altitude Speed Heading
2026-04-24 21:19 40.69545 -74.17570 18 ft 0 kts 203°
2026-04-24 21:25 40.69546 -74.17570 18 ft 0 kts 203°
2026-04-24 21:42 40.69551 -74.17567 18 ft 2 kts 203°
2026-04-24 21:42 40.69562 -74.17559 22 ft 2 kts 216°
2026-04-24 21:42 40.69571 -74.17548 18 ft 2 kts 225°
2026-04-24 21:42 40.69580 -74.17537 22 ft 2 kts 225°
2026-04-24 21:43 40.69589 -74.17525 18 ft 2 kts 222°
2026-04-24 21:43 40.69599 -74.17514 20 ft 2 kts 222°
2026-04-24 21:43 40.69608 -74.17502 21 ft 2 kts 222°
2026-04-24 21:43 40.69619 -74.17489 20 ft 2 kts 222°
2026-04-24 21:44 40.69630 -74.17476 18 ft 2 kts 231°
2026-04-24 21:44 40.69635 -74.17459 20 ft 2 kts 272°
2026-04-24 21:44 40.69631 -74.17445 19 ft 2 kts 315°
2026-04-24 21:44 40.69621 -74.17438 18 ft 1 kts 354°
2026-04-24 21:45 40.69614 -74.17439 20 ft 1 kts 21°
2026-04-24 21:45 40.69611 -74.17441 19 ft 0 kts 28°
2026-04-24 21:48 40.69612 -74.17440 19 ft 0 kts 37°
2026-04-24 21:48 40.69631 -74.17414 18 ft 7 kts 46°
2026-04-24 21:49 40.69663 -74.17373 20 ft 6 kts 41°
2026-04-24 21:49 40.69686 -74.17347 19 ft 4 kts 42°
2026-04-24 21:49 40.69704 -74.17317 21 ft 3 kts 64°
2026-04-24 21:49 40.69707 -74.17309 20 ft 0 kts 68°
2026-04-24 21:51 40.69707 -74.17308 19 ft 1 kts 68°
2026-04-24 21:52 40.69712 -74.17293 19 ft 4 kts 68°
2026-04-24 21:52 40.69729 -74.17249 21 ft 8 kts 58°
2026-04-24 21:52 40.69762 -74.17190 20 ft 8 kts 51°
2026-04-24 21:52 40.69773 -74.17137 19 ft 7 kts 108°
2026-04-24 21:53 40.69739 -74.17090 18 ft 8 kts 148°
2026-04-24 21:53 40.69688 -74.17052 18 ft 9 kts 154°
2026-04-24 21:53 40.69622 -74.17016 20 ft 11 kts 160°
2026-04-24 21:53 40.69552 -74.16992 17 ft 10 kts 168°
2026-04-24 21:54 40.69490 -74.16978 18 ft 9 kts 172°
2026-04-24 21:54 40.69427 -74.16972 18 ft 9 kts 179°
2026-04-24 21:54 40.69357 -74.16979 18 ft 11 kts 189°
2026-04-24 21:54 40.69275 -74.17007 16 ft 12 kts 198°
2026-04-24 21:55 40.69203 -74.17047 16 ft 11 kts 205°
2026-04-24 21:55 40.69134 -74.17092 16 ft 11 kts 205°
2026-04-24 21:55 40.69065 -74.17135 15 ft 11 kts 205°
2026-04-24 21:55 40.68990 -74.17182 16 ft 12 kts 205°
2026-04-24 21:56 40.68922 -74.17225 19 ft 10 kts 206°
2026-04-24 21:56 40.68863 -74.17263 19 ft 9 kts 206°
2026-04-24 21:56 40.68803 -74.17302 20 ft 10 kts 206°
2026-04-24 21:56 40.68742 -74.17341 21 ft 10 kts 206°
2026-04-24 21:57 40.68684 -74.17377 23 ft 9 kts 206°
2026-04-24 21:57 40.68624 -74.17415 25 ft 10 kts 206°
2026-04-24 21:57 40.68549 -74.17463 22 ft 14 kts 206°
2026-04-24 21:57 40.68457 -74.17522 21 ft 16 kts 206°
2026-04-24 21:58 40.68356 -74.17586 19 ft 16 kts 205°
2026-04-24 21:58 40.68247 -74.17654 16 ft 15 kts 206°
2026-04-24 21:58 40.68150 -74.17717 17 ft 16 kts 206°
2026-04-24 21:58 40.68050 -74.17780 16 ft 16 kts 206°
2026-04-24 21:59 40.67950 -74.17844 18 ft 15 kts 206°
2026-04-24 21:59 40.67868 -74.17897 19 ft 10 kts 206°
2026-04-24 21:59 40.67800 -74.17940 19 ft 10 kts 205°
2026-04-24 21:59 40.67741 -74.17977 18 ft 10 kts 205°
2026-04-24 22:00 40.67677 -74.18016 18 ft 9 kts 206°
2026-04-24 22:00 40.67630 -74.18045 19 ft 7 kts 194°
2026-04-24 22:00 40.67586 -74.18020 18 ft 8 kts 130°
2026-04-24 22:00 40.67568 -74.17954 18 ft 8 kts 83°
2026-04-24 22:01 40.67601 -74.17902 18 ft 9 kts 27°
2026-04-24 22:01 40.67812 -74.17766 16 ft 66 kts 26°
2026-04-24 22:01 40.68454 -74.17359 20 ft 138 kts 26°
2026-04-24 22:01 40.69404 -74.16777 596 ft 152 kts 27°
2026-04-24 22:02 40.70305 -74.16064 1365 ft 156 kts 41°
2026-04-24 22:02 40.71147 -74.15122 1943 ft 163 kts 40°
2026-04-24 22:02 40.71903 -74.14260 2258 ft 186 kts 40°
2026-04-24 22:02 40.72928 -74.13060 2416 ft 210 kts 41°
2026-04-24 22:03 40.74060 -74.11720 2487 ft 230 kts 40°
2026-04-24 22:03 40.75517 -74.10676 2527 ft 246 kts 11°
2026-04-24 22:03 40.77243 -74.10822 2575 ft 258 kts 339°
2026-04-24 22:03 40.78691 -74.12197 3481 ft 256 kts 308°
2026-04-24 22:04 40.79391 -74.14289 4550 ft 255 kts 278°
2026-04-24 22:04 40.79194 -74.16597 5584 ft 257 kts 253°
2026-04-24 22:04 40.78520 -74.18784 6556 ft 259 kts 249°
2026-04-24 22:04 40.77741 -74.20950 7431 ft 262 kts 248°
2026-04-24 22:05 40.76878 -74.23084 8276 ft 267 kts 248°
2026-04-24 22:05 40.75845 -74.25159 9151 ft 280 kts 234°
2026-04-24 22:05 40.74136 -74.26580 9921 ft 307 kts 207°
2026-04-24 22:05 40.71915 -74.27007 10440 ft 336 kts 187°
2026-04-24 22:06 40.69513 -74.26957 10952 ft 350 kts 184°
2026-04-24 22:06 40.67064 -74.26991 11430 ft 360 kts 189°
2026-04-24 22:06 40.65214 -74.27150 11940 ft 364 kts 190°
2026-04-24 22:06 40.62664 -74.27360 12693 ft 369 kts 189°
2026-04-24 22:07 40.60939 -74.27478 13190 ft 373 kts 188°
2026-04-24 22:07 40.57449 -74.27642 14121 ft 380 kts 188°
2026-04-24 22:07 40.54805 -74.27750 14782 ft 383 kts 187°
2026-04-24 22:07 40.52132 -74.27265 15411 ft 398 kts 163°
2026-04-24 22:08 40.50446 -74.26275 16006 ft 395 kts 155°
2026-04-24 22:08 40.47988 -74.24622 16807 ft 395 kts 156°
2026-04-24 22:08 40.45501 -74.23060 17439 ft 397 kts 159°
2026-04-24 22:08 40.42952 -74.21702 18075 ft 399 kts 163°
2026-04-24 22:09 40.40351 -74.20460 18620 ft 401 kts 164°
2026-04-24 22:09 40.37701 -74.19209 19145 ft 404 kts 163°
2026-04-24 22:09 40.35038 -74.17907 19558 ft 412 kts 163°
2026-04-24 22:09 40.32358 -74.16602 19733 ft 410 kts 167°
2026-04-24 22:10 40.29565 -74.16149 19810 ft 399 kts 191°
2026-04-24 22:10 40.26861 -74.16894 19867 ft 399 kts 203°
2026-04-24 22:10 40.24184 -74.17953 19900 ft 406 kts 204°
2026-04-24 22:10 40.21447 -74.18991 19907 ft 412 kts 201°
2026-04-24 22:11 40.18657 -74.19888 19919 ft 415 kts 199°
2026-04-24 22:11 40.15864 -74.20696 19913 ft 409 kts 199°
2026-04-24 22:11 40.13082 -74.21491 19905 ft 404 kts 199°
2026-04-24 22:11 40.10368 -74.22253 19910 ft 397 kts 200°
2026-04-24 22:12 40.07885 -74.23582 19898 ft 378 kts 221°
2026-04-24 22:12 40.05771 -74.25583 19915 ft 375 kts 224°
2026-04-24 22:12 40.03689 -74.27575 19921 ft 376 kts 223°
2026-04-24 22:12 40.01485 -74.29472 19926 ft 380 kts 219°
2026-04-24 22:13 39.99181 -74.31242 19930 ft 388 kts 217°
2026-04-24 22:13 39.96817 -74.32992 19929 ft 395 kts 217°
2026-04-24 22:13 39.94399 -74.34806 19931 ft 399 kts 217°
2026-04-24 22:13 39.92001 -74.36623 19932 ft 398 kts 217°
2026-04-24 22:14 39.89626 -74.38410 19923 ft 389 kts 217°
2026-04-24 22:14 39.87301 -74.40169 19915 ft 389 kts 217°
2026-04-24 22:14 39.84960 -74.41950 19916 ft 393 kts 217°
2026-04-24 22:14 39.82581 -74.43752 19919 ft 396 kts 217°
2026-04-24 22:15 39.80200 -74.45550 19918 ft 399 kts 217°
2026-04-24 22:15 39.77783 -74.47376 19910 ft 401 kts 217°
2026-04-24 22:15 39.75363 -74.49204 19912 ft 404 kts 216°
2026-04-24 22:15 39.72918 -74.51049 19909 ft 406 kts 216°
2026-04-24 22:16 39.70468 -74.52890 19905 ft 408 kts 216°
2026-04-24 22:16 39.67993 -74.54755 19905 ft 410 kts 216°
2026-04-24 22:16 39.65514 -74.56622 19906 ft 411 kts 216°
2026-04-24 22:16 39.63069 -74.58451 19903 ft 403 kts 216°
2026-04-24 22:17 39.60640 -74.60278 19904 ft 403 kts 216°
2026-04-24 22:17 39.58214 -74.62104 19904 ft 405 kts 216°
2026-04-24 22:17 39.55780 -74.63926 19907 ft 410 kts 216°
2026-04-24 22:17 39.53297 -74.65785 19911 ft 414 kts 216°
2026-04-24 22:18 39.50808 -74.67645 19912 ft 405 kts 216°
2026-04-24 22:18 39.48395 -74.69451 19907 ft 401 kts 216°
2026-04-24 22:18 39.45996 -74.71248 19904 ft 398 kts 216°
2026-04-24 22:18 39.43606 -74.73032 19904 ft 395 kts 216°
2026-04-24 22:19 39.41239 -74.74798 19901 ft 392 kts 216°
2026-04-24 22:19 39.38862 -74.76572 19900 ft 390 kts 216°
2026-04-24 22:19 39.36532 -74.78308 19895 ft 388 kts 216°
2026-04-24 22:19 39.34208 -74.80037 19896 ft 386 kts 216°
2026-04-24 22:20 39.31883 -74.81768 19886 ft 385 kts 216°
2026-04-24 22:20 39.29534 -74.83514 19887 ft 384 kts 216°
2026-04-24 22:20 39.27241 -74.85218 19887 ft 384 kts 216°
2026-04-24 22:20 39.24905 -74.86951 19886 ft 383 kts 216°
2026-04-24 22:21 39.22617 -74.88648 19888 ft 384 kts 216°
2026-04-24 22:21 39.20284 -74.90376 19901 ft 385 kts 216°
2026-04-24 22:21 39.17963 -74.92095 19903 ft 385 kts 216°
2026-04-24 22:21 39.15645 -74.93808 19904 ft 386 kts 216°
2026-04-24 22:22 39.13309 -74.95534 19906 ft 386 kts 216°
2026-04-24 22:22 39.10981 -74.97256 19909 ft 386 kts 216°
2026-04-24 22:22 39.08642 -74.98980 19906 ft 386 kts 216°
2026-04-24 22:22 39.06308 -75.00703 19909 ft 386 kts 216°
2026-04-24 22:23 39.03990 -75.02409 19910 ft 387 kts 215°
2026-04-24 22:23 39.01660 -75.04126 19910 ft 389 kts 215°
2026-04-24 22:23 38.99300 -75.05863 19911 ft 391 kts 215°
2026-04-24 22:23 38.96929 -75.07608 19908 ft 394 kts 215°
2026-04-24 22:24 38.94548 -75.09358 19906 ft 396 kts 215°
2026-04-24 22:24 38.92128 -75.11132 19905 ft 397 kts 215°
2026-04-24 22:24 38.89758 -75.12867 19895 ft 391 kts 215°
2026-04-24 22:24 38.87396 -75.14599 19888 ft 386 kts 215°
2026-04-24 22:25 38.85098 -75.16285 19862 ft 382 kts 215°
2026-04-24 22:25 38.82803 -75.17965 19865 ft 380 kts 215°
2026-04-24 22:25 38.80518 -75.19636 19865 ft 378 kts 215°
2026-04-24 22:25 38.78219 -75.21317 19868 ft 382 kts 215°
2026-04-24 22:26 38.75881 -75.23025 19877 ft 387 kts 214°
2026-04-24 22:26 38.73534 -75.24734 19877 ft 390 kts 215°
2026-04-24 22:26 38.71147 -75.26476 19876 ft 394 kts 214°
2026-04-24 22:26 38.68756 -75.28198 19881 ft 398 kts 213°
2026-04-24 22:27 38.66319 -75.29856 19882 ft 392 kts 212°
2026-04-24 22:27 38.63916 -75.31382 19873 ft 382 kts 211°
2026-04-24 22:27 38.61564 -75.32873 19871 ft 378 kts 211°
2026-04-24 22:27 38.59219 -75.34373 19866 ft 374 kts 211°
2026-04-24 22:28 38.56902 -75.35855 19866 ft 372 kts 211°
2026-04-24 22:28 38.54595 -75.37330 19863 ft 373 kts 211°
2026-04-24 22:28 38.52259 -75.38819 19867 ft 376 kts 211°
2026-04-24 22:28 38.49899 -75.40322 19877 ft 379 kts 211°
2026-04-24 22:29 38.45150 -75.43343 19883 ft 385 kts 211°
2026-04-24 22:29 38.42720 -75.44887 19888 ft 387 kts 211°
2026-04-24 22:29 38.40305 -75.46420 19889 ft 389 kts 211°
2026-04-24 22:30 38.37893 -75.47952 19890 ft 387 kts 211°
2026-04-24 22:30 38.35502 -75.49463 19886 ft 378 kts 211°
2026-04-24 22:30 38.33162 -75.50945 19882 ft 370 kts 211°
2026-04-24 22:30 38.30891 -75.52387 19879 ft 365 kts 211°
2026-04-24 22:31 38.28624 -75.53824 19879 ft 367 kts 211°
2026-04-24 22:31 38.26328 -75.55274 19883 ft 369 kts 211°
2026-04-24 22:31 38.24005 -75.56743 19886 ft 371 kts 211°
2026-04-24 22:31 38.21706 -75.58194 19822 ft 369 kts 210°
2026-04-24 22:32 38.19423 -75.59628 19571 ft 359 kts 211°
2026-04-24 22:32 38.17399 -75.61347 19304 ft 342 kts 231°
2026-04-24 22:32 38.16093 -75.63853 19082 ft 342 kts 247°
2026-04-24 22:32 38.15163 -75.66612 18861 ft 338 kts 253°
2026-04-24 22:33 38.14385 -75.69388 18633 ft 328 kts 255°
2026-04-24 22:33 38.13641 -75.72123 18395 ft 328 kts 255°
2026-04-24 22:33 38.12888 -75.74879 18164 ft 329 kts 254°
2026-04-24 22:33 38.12103 -75.77589 17904 ft 327 kts 253°
2026-04-24 22:34 38.11298 -75.80262 17645 ft 324 kts 253°
2026-04-24 22:34 38.10496 -75.82927 17372 ft 322 kts 253°
2026-04-24 22:34 38.09696 -75.85586 17108 ft 321 kts 253°
2026-04-24 22:34 38.08909 -75.88194 16846 ft 314 kts 253°
2026-04-24 22:35 38.08139 -75.90749 16583 ft 309 kts 253°
2026-04-24 22:35 38.07368 -75.93302 16314 ft 304 kts 253°
2026-04-24 22:35 38.06620 -75.95780 16149 ft 303 kts 253°
2026-04-24 22:35 38.05868 -75.98266 16079 ft 297 kts 252°
2026-04-24 22:36 38.05138 -76.00681 16048 ft 294 kts 253°
2026-04-24 22:36 38.04402 -76.03083 16033 ft 291 kts 252°
2026-04-24 22:36 38.03676 -76.05463 16027 ft 288 kts 253°
2026-04-24 22:36 38.02960 -76.07826 15967 ft 287 kts 253°
2026-04-24 22:37 38.02248 -76.10174 15718 ft 285 kts 253°
2026-04-24 22:37 38.01531 -76.12528 15471 ft 283 kts 253°
2026-04-24 22:37 38.00832 -76.14835 15217 ft 284 kts 253°
2026-04-24 22:37 38.00109 -76.17204 14977 ft 288 kts 253°
2026-04-24 22:38 37.99390 -76.19581 14742 ft 288 kts 253°
2026-04-24 22:38 37.98678 -76.21932 14502 ft 286 kts 253°
2026-04-24 22:38 37.97958 -76.24266 14264 ft 283 kts 252°
2026-04-24 22:38 37.97247 -76.26580 14028 ft 280 kts 253°
2026-04-24 22:39 37.96541 -76.28904 13790 ft 286 kts 252°
2026-04-24 22:39 37.95820 -76.31288 13550 ft 294 kts 252°
2026-04-24 22:39 37.95076 -76.33731 13290 ft 300 kts 252°
2026-04-24 22:39 37.94327 -76.36178 13045 ft 296 kts 252°
2026-04-24 22:40 37.93587 -76.38591 12783 ft 291 kts 252°
2026-04-24 22:40 37.92854 -76.40972 12520 ft 287 kts 252°
2026-04-24 22:40 37.92139 -76.43307 12265 ft 287 kts 252°
2026-04-24 22:40 37.91407 -76.45691 11971 ft 289 kts 252°
2026-04-24 22:41 37.90680 -76.48050 11666 ft 286 kts 252°
2026-04-24 22:41 37.89961 -76.50382 11369 ft 283 kts 252°
2026-04-24 22:41 37.89246 -76.52707 11079 ft 281 kts 252°
2026-04-24 22:41 37.88779 -76.54224 10881 ft 279 kts 252°
2026-04-24 22:42 37.87840 -76.57262 10493 ft 276 kts 252°
2026-04-24 22:42 37.87139 -76.59522 10200 ft 273 kts 252°
2026-04-24 22:42 37.86459 -76.61730 9922 ft 271 kts 251°
2026-04-24 22:42 37.85769 -76.63955 9622 ft 273 kts 251°
2026-04-24 22:43 37.85070 -76.66214 9315 ft 275 kts 251°
2026-04-24 22:43 37.84373 -76.68459 9007 ft 275 kts 251°
2026-04-24 22:43 37.83677 -76.70707 8702 ft 273 kts 251°
2026-04-24 22:43 37.82977 -76.72962 8400 ft 272 kts 251°
2026-04-24 22:44 37.82336 -76.75179 8104 ft 269 kts 258°
2026-04-24 22:44 37.82138 -76.77523 7805 ft 266 kts 268°
2026-04-24 22:44 37.82044 -76.79852 7513 ft 265 kts 268°
2026-04-24 22:44 37.81977 -76.82178 7228 ft 263 kts 269°
2026-04-24 22:45 37.81928 -76.84491 6935 ft 262 kts 269°
2026-04-24 22:45 37.81887 -76.86763 6648 ft 261 kts 269°
2026-04-24 22:45 37.81856 -76.89047 6361 ft 259 kts 269°
2026-04-24 22:45 37.81790 -76.91337 6051 ft 258 kts 264°
2026-04-24 22:46 37.81629 -76.92851 5845 ft 260 kts 262°
2026-04-24 22:46 37.81332 -76.95086 5518 ft 261 kts 260°
2026-04-24 22:46 37.81006 -76.97347 5147 ft 259 kts 260°
2026-04-24 22:46 37.80675 -76.99576 4773 ft 256 kts 259°
2026-04-24 22:47 37.80347 -77.01771 4414 ft 254 kts 259°
2026-04-24 22:47 37.80014 -77.03987 4209 ft 255 kts 259°
2026-04-24 22:47 37.79687 -77.06163 4132 ft 249 kts 259°
2026-04-24 22:47 37.79371 -77.08255 4084 ft 236 kts 259°
2026-04-24 22:48 37.79067 -77.10248 4091 ft 220 kts 259°
2026-04-24 22:48 37.78771 -77.12180 4106 ft 227 kts 259°
2026-04-24 22:48 37.78471 -77.14143 4100 ft 228 kts 259°
2026-04-24 22:48 37.78175 -77.16115 3942 ft 224 kts 259°
2026-04-24 22:49 37.77888 -77.18041 3654 ft 224 kts 259°
2026-04-24 22:49 37.77595 -77.19984 3362 ft 226 kts 260°
2026-04-24 22:49 37.77302 -77.21942 3076 ft 224 kts 259°
2026-04-24 22:49 37.77017 -77.23857 2773 ft 218 kts 259°
2026-04-24 22:50 37.76732 -77.25754 2501 ft 222 kts 259°
2026-04-24 22:50 37.76445 -77.27674 2271 ft 223 kts 259°
2026-04-24 22:50 37.76162 -77.29538 2190 ft 213 kts 259°
2026-04-24 22:50 37.75886 -77.31355 2137 ft 207 kts 259°
2026-04-24 22:51 37.75618 -77.33122 2085 ft 202 kts 259°
2026-04-24 22:51 37.75358 -77.34865 2050 ft 203 kts 259°
2026-04-24 22:51 37.75099 -77.36612 2065 ft 205 kts 260°
2026-04-24 22:51 37.74834 -77.38394 2055 ft 206 kts 260°
2026-04-24 22:52 37.74573 -77.40121 2043 ft 192 kts 259°
2026-04-24 22:52 37.74329 -77.41741 2030 ft 188 kts 259°
2026-04-24 22:52 37.73804 -77.43258 1976 ft 188 kts 226°
2026-04-24 22:52 37.72705 -77.44000 1973 ft 182 kts 195°
2026-04-24 22:53 37.71432 -77.43990 2019 ft 188 kts 179°
2026-04-24 22:53 37.70080 -77.43938 2072 ft 194 kts 179°
2026-04-24 22:53 37.68720 -77.43886 2092 ft 199 kts 180°
2026-04-24 22:53 37.67370 -77.43822 2076 ft 185 kts 179°
2026-04-24 22:54 37.66131 -77.43447 2030 ft 190 kts 155°
2026-04-24 22:54 37.64914 -77.42702 2038 ft 196 kts 155°
2026-04-24 22:54 37.63706 -77.41912 2022 ft 195 kts 152°
2026-04-24 22:54 37.62567 -77.41081 2000 ft 182 kts 149°
2026-04-24 22:55 37.61532 -77.40268 1998 ft 171 kts 148°
2026-04-24 22:55 37.60549 -77.39480 2012 ft 163 kts 148°
2026-04-24 22:55 37.59580 -77.38702 1894 ft 163 kts 149°
2026-04-24 22:55 37.58649 -77.37963 1711 ft 153 kts 149°
2026-04-24 22:56 37.57778 -77.37263 1488 ft 148 kts 149°
2026-04-24 22:56 37.56903 -77.36567 1284 ft 149 kts 149°
2026-04-24 22:56 37.56034 -77.35879 1129 ft 146 kts 149°
2026-04-24 22:56 37.55170 -77.35182 955 ft 149 kts 148°
2026-04-24 22:57 37.54339 -77.34530 771 ft 137 kts 146°
2026-04-24 22:57 37.53584 -77.33930 598 ft 135 kts 145°
2026-04-24 22:57 37.52798 -77.33275 462 ft 137 kts 146°
2026-04-24 22:57 37.52031 -77.32664 323 ft 137 kts 145°
2026-04-24 22:58 37.51513 -77.32236 201 ft 128 kts 146°
2026-04-24 22:58 37.51018 -77.31836 173 ft 88 kts 148°
2026-04-24 22:58 37.50634 -77.31530 176 ft 50 kts 148°
2026-04-24 22:58 37.50420 -77.31361 176 ft 24 kts 148°
2026-04-24 22:59 37.50316 -77.31303 174 ft 11 kts 179°
2026-04-24 22:59 37.50260 -77.31350 173 ft 10 kts 237°
2026-04-24 22:59 37.50211 -77.31471 174 ft 9 kts 268°
2026-04-24 23:00 37.50246 -77.31531 174 ft 9 kts 329°
2026-04-24 23:00 37.50302 -77.31572 174 ft 8 kts 329°
2026-04-24 23:00 37.50357 -77.31620 174 ft 10 kts 314°
2026-04-24 23:00 37.50383 -77.31709 174 ft 12 kts 274°
2026-04-24 23:01 37.50390 -77.31821 174 ft 14 kts 275°
2026-04-24 23:01 37.50397 -77.31941 174 ft 14 kts 274°
2026-04-24 23:01 37.50404 -77.32058 174 ft 14 kts 275°
2026-04-24 23:01 37.50412 -77.32184 174 ft 15 kts 274°
2026-04-24 23:02 37.50419 -77.32321 174 ft 15 kts 274°
2026-04-24 23:02 37.50427 -77.32445 174 ft 13 kts 275°
2026-04-24 23:02 37.50434 -77.32555 174 ft 13 kts 274°
2026-04-24 23:02 37.50440 -77.32668 174 ft 12 kts 274°
2026-04-24 23:03 37.50448 -77.32767 175 ft 10 kts 276°
2026-04-24 23:03 37.50458 -77.32848 175 ft 10 kts 282°
2026-04-24 23:03 37.50471 -77.32921 174 ft 7 kts 283°
2026-04-24 23:03 37.50483 -77.32974 174 ft 5 kts 296°
2026-04-24 23:04 37.50511 -77.33001 174 ft 6 kts 345°
2026-04-24 23:04 37.50546 -77.32999 174 ft 5 kts 14°
2026-04-24 23:04 37.50586 -77.32985 174 ft 5 kts 14°
2026-04-24 23:04 37.50620 -77.32974 174 ft 5 kts 14°
2026-04-24 23:05 37.50655 -77.32963 174 ft 6 kts 13°
2026-04-24 23:05 37.50702 -77.32949 174 ft 8 kts 13°
2026-04-24 23:05 37.50745 -77.32938 174 ft 5 kts
2026-04-24 23:05 37.50777 -77.32957 174 ft 5 kts 313°
2026-04-24 23:06 37.50791 -77.32987 174 ft 4 kts 283°
2026-04-24 23:06 37.50794 -77.33025 174 ft 4 kts 271°
2026-04-24 23:06 37.50792 -77.33048 174 ft 2 kts 251°
2026-04-24 23:06 37.50783 -77.33066 174 ft 3 kts 236°
2026-04-24 23:07 37.50773 -77.33085 174 ft 3 kts 238°
2026-04-24 23:07 37.50764 -77.33104 174 ft 2 kts 238°
2026-04-24 23:07 37.50756 -77.33120 174 ft 2 kts 238°
2026-04-24 23:07 37.50753 -77.33126 174 ft 0 kts 238°